Regional Weather Roundup
Issued by NWS

Home | Current Version | Previous Version | Text Only | Print | Product List | Glossary Off
Versions: 1 2 3 4 5 6 7 8 9 10 11 12 13 14 15 16 17 18 19 20 21 22 23 24 25 26 27 28 29 30 31 32 33 34 35 36 37 38 39 40 41 42 43 44 45 46 47 48 49 50

000
ASUS43 KIND 212200
RWRIN

WEATHER ROUNDUP FOR INDIANA
NATIONAL WEATHER SERVICE INDIANAPOLIS IN
600 PM EDT MON AUG 21 2017

NOTE: "FAIR" INDICATES FEW OR NO CLOUDS BELOW 12,000 FEET WITH NO
SIGNIFICANT WEATHER AND/OR OBSTRUCTIONS TO VISIBILITY.

* - STATION DOES NOT REPORT WEATHER SUCH AS PRECIPITATION OR FOG.

+ - STATION NOT QUALITY CONTROLLED BY THE NATIONAL WEATHER SERVICE.
    USE DATA WITH CAUTION...ESPECIALLY DEWPOINT AND RELATIVE
    HUMIDITY OBSERVATIONS.

INZ001>003-010>013-019-020-212300-
NORTHWEST INDIANA

CITY           SKY/WX    TMP DP  RH WIND       PRES   REMARKS
GARY /AIRPORT/ PTSUNNY   86  70  58 SE15      29.99F
MICHIGAN CITY+ MOSUNNY   82  70  65 S8        29.99F
MONTICELLO +   SUNNY     85  67  55 S10G16    30.01S
RENSSELAER +   MOSUNNY   82  68  61 S9        30.03R

$$

LMZ046-743>745-212300-
SOUTHERN LAKE MICHIGAN

STATION/POSITION TIME  TEMP    WIND        PRES    WAVE
                       AIR SEA DIR/SP/G            HT
                 (UTC) (F)     (DEG/KT/KT) (MB)    (FT)
BURNS HARBOR     2140   85     140/  8/ 16 1015.2F
MICHIGAN CITY    2130   82     140/ 10/ 11   N/A
5NW MICH CITY    2150   77 76  100/  2/  4   N/A     1

$$

INZ004-005-014>016-021>024-212300-
NORTH CENTRAL INDIANA

CITY           SKY/WX    TMP DP  RH WIND       PRES   REMARKS
GOSHEN         MOSUNNY   83  69  62 S8        30.01F
SOUTH BEND     CLOUDY    84  71  65 VRB3      30.00F

$$

INZ006>009-017-018-025>027-212300-
NORTHEAST INDIANA

CITY           SKY/WX    TMP DP  RH WIND       PRES   REMARKS
FORT WAYNE     PTSUNNY   85  70  60 S8        30.05S

$$

INZ028-029-035-036-043>045-051>053-212300-
WEST CENTRAL INDIANA

CITY           SKY/WX    TMP DP  RH WIND       PRES   REMARKS
LAFAYETTE      SUNNY     84  71  65 S9        30.03S
TERRE HAUTE    MOSUNNY   80  71  74 S7        30.07F

$$

INZ030>032-037>040-046>048-054>057-064-065-212300-
CENTRAL INDIANA

CITY           SKY/WX    TMP DP  RH WIND       PRES   REMARKS
COLUMBUS       MOSUNNY   82  64  54 SW6       30.10R
GREENWOOD *+   CLOUDY    74  70  86 SW6       30.11F
INDIANAPOLIS   PTSUNNY   78  68  71 S9        30.08F
-EAGLE CREEK   CLOUDY    80  70  71 S6        30.08S
KOKOMO +       SUNNY     83  76  79 S12       30.06S
MT COMFORT *+  CLOUDY    77  73  88 CALM      30.11R
SHELBYVILLE    LGT RAIN  77  70  79 SW7       30.11R

$$

INZ033-034-041-042-049-050-058-059-212300-
EAST CENTRAL INDIANA

CITY           SKY/WX    TMP DP  RH WIND       PRES   REMARKS
MUNCIE         CLOUDY    82  68  62 S8        30.09R
RICHMOND +     CLOUDY    79  72  78 SW5       30.13R

$$

INZ060-061-067>069-081>083-085>088-212300-
SOUTHWEST INDIANA

CITY           SKY/WX    TMP DP  RH WIND       PRES   REMARKS
EVANSVILLE     SUNNY     91  69  48 S7        30.05F HX  96
HUNTINGBURG +  MOSUNNY   90  72  55 MISG      30.08F HX  97

$$

INZ062-063-066-070>080-084-089>092-212300-
SOUTH CENTRAL AND SOUTHEAST INDIANA

CITY           SKY/WX    TMP DP  RH WIND       PRES   REMARKS
BLOOMINGTON    LGT RAIN  77  70  79 E3        30.10F
MADISON *+     CLOUDY    86  72  62 CALM      30.13R
SEYMOUR +      CLOUDY    84  72  65 CALM      30.09R

$$




USA.gov is the U.S. government's official web portal to all federal, state and local government web resources and services.